K4AVM-13 Weather Reports


Display with metric or nautical units.
time (UTC)temp
F
wind
direction
speed
MPH
gust
MPH
rain 1hr
in
rain 24hr
in
rain mn
in
humidity
%
barometer
mb
20260502164342 55 168 1.0 3.0 0.00 0.00 0.00 51 1015.5
20260502163838 55 14 3.0 6.0 0.00 0.00 0.00 50 1015.6
20260502163334 55 156 1.0 7.0 0.00 0.00 0.00 51 1015.7
20260502162832 55 159 0.0 3.0 0.00 0.00 0.00 54 1015.8
20260502162329 54 91 2.0 8.0 0.00 0.00 0.00 51 1015.6
20260502161826 55 140 4.0 6.0 0.00 0.00 0.00 53 1015.7
20260502161321 54 326 1.0 4.0 0.00 0.00 0.00 54 1015.7
20260502160819 54 26 2.0 4.0 0.00 0.00 0.00 53 1015.6
20260502160312 55 317 1.0 3.0 0.00 0.00 0.00 54 1015.8
20260502152242 55 184 1.0 2.0 0.00 0.00 0.00 56 1015.9
20260502151739 54 101 1.0 8.0 0.00 0.00 0.00 57 1015.7
20260502151236 54 343 4.0 7.0 0.00 0.00 0.00 57 1015.9
20260502150733 54 168 2.0 7.0 0.00 0.00 0.00 57 1016.1
20260502150230 54 119 2.0 2.0 0.00 0.00 0.00 58 1016.0
20260502130619 53 187 1.0 7.0 0.00 0.00 0.00 68 1015.5
20260502130116 53 139 0.0 2.0 0.00 0.00 0.00 69 1015.4
20260502123602 52 329 4.0 8.0 0.00 0.00 0.00 71 1015.4
20260502123058 52 262 1.0 4.0 0.00 0.00 0.00 73 1015.2
20260502122555 51 207 2.0 8.0 0.00 0.00 0.00 74 1015.1
20260502122052 52 149 1.0 4.0 0.00 0.00 0.00 76 1015.1
20260502121549 51 32 4.0 6.0 0.00 0.00 0.00 75 1015.0
20260502121047 51 124 5.0 9.0 0.00 0.00 0.00 75 1014.9
20260502120543 51 170 4.0 4.0 0.00 0.00 0.00 77 1014.9
20260502115538 51 315 2.0 3.0 0.00 0.00 0.00 80 1014.9
20260502115033 51 132 1.0 3.0 0.00 0.00 0.00 81 1014.9
20260502114530 51 25 2.0 4.0 0.00 0.00 0.00 82 1015.0
20260502114027 51 132 1.0 4.0 0.00 0.00 0.00 83 1015.1
20260502113525 51 327 2.0 3.0 0.00 0.00 0.00 83 1015.1
20260502113024 51 53 1.0 2.0 0.00 0.00 0.00 84 1015.2
20260502112521 51 173 0.0 3.0 0.00 0.00 0.00 85 1015.0
20260502112018 51 26 2.0 3.0 0.00 0.00 0.00 85 1015.0
20260502111515 50 140 1.0 1.0 0.00 0.00 0.00 85 1015.1
20260502111013 50 146 0.0 3.0 0.00 0.00 0.00 86 1015.1
20260502110510 50 147 0.0 2.0 0.00 0.00 0.00 86 1015.1
20260502110008 50 144 0.0 1.0 0.00 0.00 0.00 87 1015.1
20260502105505 50 147 0.0 1.0 0.00 0.00 0.00 87 1015.0
20260502105002 50 151 0.0 0.0 0.00 0.00 0.00 87 1014.9
20260502104459 50 151 0.0 0.0 0.00 0.00 0.00 87 1014.7
20260502103956 50 159 0.0 3.0 0.00 0.00 0.00 88 1014.8
20260502103454 50 175 0.0 1.0 0.00 0.00 0.00 88 1015.0
20260502102951 50 157 0.0 0.0 0.00 0.00 0.00 89 1014.8
20260502102448 50 158 0.0 0.0 0.00 0.00 0.00 89 1014.6
20260502101944 49 158 0.0 0.0 0.00 0.00 0.00 89 1014.7
20260502101443 49 150 0.0 0.0 0.00 0.00 0.00 89 1014.5
20260502100941 49 149 0.0 0.0 0.00 0.00 0.00 89 1014.3
20260502100439 49 117 0.0 0.0 0.00 0.00 0.00 89 1014.3
20260502091414 48 131 0.0 0.0 0.00 0.00 0.00 95 1014.0
20260502090910 48 132 0.0 0.0 0.00 0.00 0.00 94 1014.2
20260502090408 48 149 0.0 0.0 0.00 0.00 0.00 94 1014.1
20260502071257 49 149 0.0 0.0 0.00 0.00 0.00 89 1013.7
20260502070755 49 151 0.0 0.0 0.00 0.00 0.00 89 1013.8
20260502070252 50 150 0.0 0.0 0.00 0.00 0.00 89 1013.7
20260502065751 50 141 0.0 0.0 0.00 0.00 0.00 88 1013.7
20260502065249 50 154 0.0 0.0 0.00 0.00 0.00 88 1013.6
20260502064747 50 165 0.0 0.0 0.00 0.00 0.00 87 1013.6
20260502064244 51 135 0.0 1.0 0.00 0.00 0.00 87 1013.4
20260502063741 51 155 0.0 0.0 0.00 0.00 0.00 86 1013.8
20260502063239 51 144 0.0 0.0 0.00 0.00 0.00 85 1013.7
20260502062736 51 145 0.0 0.0 0.00 0.00 0.00 85 1013.6
20260502062234 51 149 0.0 0.0 0.00 0.00 0.00 84 1013.8
20260502061732 52 141 0.0 1.0 0.00 0.00 0.00 84 1013.9
20260502061230 52 151 0.0 0.0 0.00 0.00 0.00 84 1014.0
20260502060724 52 156 0.0 1.0 0.00 0.00 0.00 83 1013.9
20260502060221 52 160 0.0 0.0 0.00 0.00 0.00 82 1013.7
20260502055719 53 152 0.0 0.0 0.00 0.00 0.00 81 1013.8
20260502055216 53 166 0.0 1.0 0.00 0.00 0.00 80 1013.7
20260502054715 53 184 0.0 0.0 0.00 0.00 0.00 80 1013.7
20260502054213 53 155 1.0 2.0 0.00 0.00 0.00 80 1013.7
20260502053710 53 161 0.0 0.0 0.00 0.00 0.00 79 1014.0
20260502053207 54 136 0.0 1.0 0.00 0.00 0.00 79 1013.9
20260502052705 54 151 0.0 1.0 0.00 0.00 0.00 79 1013.9
20260502052203 54 152 0.0 0.0 0.00 0.00 0.00 79 1014.2
20260502051701 54 162 0.0 0.0 0.00 0.00 0.00 78 1014.0
20260502051159 54 122 0.0 1.0 0.00 0.00 0.00 78 1014.3
20260502050655 54 149 0.0 1.0 0.00 0.00 0.00 77 1014.1
20260502050151 54 149 0.0 0.0 0.00 0.00 0.00 77 1014.1
20260502045648 54 131 0.0 0.0 0.00 0.00 0.00 77 1014.2
20260502045145 55 136 1.0 1.0 0.00 0.00 0.00 76 1014.0
20260502044636 55 126 0.0 1.0 0.00 0.00 0.00 76 1014.2
20260502044132 55 137 0.0 1.0 0.00 0.00 0.00 75 1014.2
20260502043630 55 288 1.0 2.0 0.00 0.00 0.00 75 1014.3
20260502043127 55 159 0.0 1.0 0.00 0.00 0.00 75 1014.5
20260502042621 55 169 1.0 3.0 0.00 0.00 0.00 75 1014.3
20260502042118 55 156 0.0 1.0 0.00 0.00 0.00 75 1014.4
20260502041616 55 141 1.0 1.0 0.00 0.00 0.00 74 1014.2
20260502041113 55 112 1.0 7.0 0.00 0.00 0.00 73 1014.4
20260502040610 55 159 2.0 4.0 0.00 0.00 0.00 74 1014.3
20260502040107 56 171 0.0 1.0 0.00 0.00 0.00 74 1014.2
20260502035603 56 160 0.0 1.0 0.00 0.00 0.00 73 1014.1
20260502035100 56 133 0.0 1.0 0.00 0.00 0.00 73 1014.1
20260502034558 56 141 0.0 1.0 0.00 0.00 0.00 72 1014.1
20260502034056 56 135 0.0 0.0 0.00 0.00 0.00 72 1014.2
20260502033554 57 141 0.0 1.0 0.00 0.00 0.00 71 1014.4
20260502033051 57 170 0.0 1.0 0.00 0.00 0.00 71 1014.1
20260502032547 57 136 0.0 1.0 0.00 0.00 0.00 70 1014.3
20260502032044 57 161 0.0 1.0 0.00 0.00 0.00 69 1013.9
20260502031542 57 166 1.0 3.0 0.00 0.00 0.00 69 1014.0
20260502031039 57 149 0.0 2.0 0.00 0.00 0.00 69 1013.9
20260502030538 57 161 0.0 1.0 0.00 0.00 0.00 69 1013.6
20260502030035 57 169 1.0 2.0 0.00 0.00 0.00 67 1013.5
20260502025532 58 145 0.0 1.0 0.00 0.00 0.00 67 1013.5
20260502025031 58 159 1.0 1.0 0.00 0.00 0.00 66 1013.5
20260502024527 58 151 0.0 1.0 0.00 0.00 0.00 66 1013.4
20260502024026 58 161 0.0 1.0 0.00 0.00 0.00 65 1013.8
20260502023523 58 122 1.0 3.0 0.00 0.00 0.00 64 1013.9
20260502023020 58 161 0.0 2.0 0.00 0.00 0.00 64 1013.8
20260502022517 58 192 0.0 1.0 0.00 0.00 0.00 63 1013.7
20260502022014 59 132 0.0 2.0 0.00 0.00 0.00 62 1014.0
20260502021512 58 151 0.0 3.0 0.00 0.00 0.00 62 1013.9
20260502021009 58 117 0.0 1.0 0.00 0.00 0.00 62 1013.7
20260502020506 58 117 1.0 1.0 0.00 0.00 0.00 60 1013.7
20260502020003 57 153 0.0 8.0 0.00 0.00 0.00 61 1013.6
20260502015501 57 141 0.0 1.0 0.00 0.00 0.00 61 1013.6
20260502014957 57 150 0.0 0.0 0.00 0.00 0.00 61 1013.8
20260502014454 57 155 0.0 0.0 0.00 0.00 0.00 60 1013.6
20260502013951 58 151 0.0 0.0 0.00 0.00 0.00 59 1013.6
20260502013446 58 153 0.0 0.0 0.00 0.00 0.00 57 1013.3
20260502012943 59 150 0.0 0.0 0.00 0.00 0.00 56 1013.4
20260502012440 58 151 0.0 1.0 0.00 0.00 0.00 56 1013.5
20260502011938 58 151 0.0 0.0 0.00 0.00 0.00 57 1013.6
20260502011434 58 145 0.0 0.0 0.00 0.00 0.00 56 1013.3
20260502010931 59 150 0.0 0.0 0.00 0.00 0.00 55 1013.2
20260502010427 59 149 0.0 0.0 0.00 0.00 0.00 54 1013.1
20260502005924 60 151 0.0 0.0 0.00 0.00 0.00 53 1013.2
20260502005422 60 153 0.0 1.0 0.00 0.00 0.00 51 1013.1
20260502004920 61 134 0.0 0.0 0.00 0.00 0.00 50 1012.8
20260502004415 61 153 0.0 2.0 0.00 0.00 0.00 49 1012.7
20260502003913 61 141 1.0 1.0 0.00 0.00 0.00 48 1012.7
20260502003410 61 136 0.0 1.0 0.00 0.00 0.00 47 1012.7
20260502002906 61 106 1.0 1.0 0.00 0.00 0.00 46 1012.8
20260502002404 62 141 0.0 3.0 0.00 0.00 0.00 45 1012.8
20260502001901 62 161 0.0 1.0 0.00 0.00 0.00 45 1012.7
20260502001358 62 141 0.0 2.0 0.00 0.00 0.00 44 1012.6
20260502000855 62 159 0.0 1.0 0.00 0.00 0.00 44 1012.5
20260502000354 63 145 0.0 1.0 0.00 0.00 0.00 43 1012.8
20260501235850 63 168 0.0 1.0 0.00 0.00 0.00 43 1012.7
20260501235345 64 153 1.0 2.0 0.00 0.00 0.00 43 1012.7
20260501234841 64 170 2.0 3.0 0.00 0.00 0.00 44 1012.4
20260501234338 64 164 1.0 4.0 0.00 0.00 0.00 43 1012.6
20260501233837 64 119 2.0 3.0 0.00 0.00 0.00 43 1012.6
20260501233334 64 135 1.0 2.0 0.00 0.00 0.00 44 1012.4
20260501232829 64 166 0.0 1.0 0.00 0.00 0.00 44 1012.4
20260501232327 64 146 0.0 0.0 0.00 0.00 0.00 43 1012.4
20260501231824 65 159 0.0 1.0 0.00 0.00 0.00 43 1012.4
20260501231322 65 160 0.0 1.0 0.00 0.00 0.00 43 1012.3
20260501230820 65 158 0.0 2.0 0.00 0.00 0.00 41 1012.3
20260501230319 65 185 0.0 0.0 0.00 0.00 0.00 40 1012.4
20260501225816 66 219 1.0 4.0 0.00 0.00 0.00 39 1012.5
20260501225314 66 99 1.0 2.0 0.00 0.00 0.00 39 1012.3
20260501224809 66 203 2.0 3.0 0.00 0.00 0.00 38 1012.5
20260501224307 66 133 0.0 3.0 0.00 0.00 0.00 40 1012.6
20260501223803 66 175 0.0 1.0 0.00 0.00 0.00 39 1012.4
20260501223259 66 152 2.0 2.0 0.00 0.00 0.00 38 1012.7
20260501222755 66 112 3.0 3.0 0.00 0.00 0.00 38 1012.6
20260501222253 66 77 2.0 3.0 0.00 0.00 0.00 38 1012.6
20260501221749 66 134 2.0 7.0 0.00 0.00 0.00 37 1012.6
20260501221247 66 146 0.0 3.0 0.00 0.00 0.00 39 1012.6
20260501220744 67 192 2.0 4.0 0.00 0.00 0.00 37 1012.7
20260501220241 67 156 1.0 3.0 0.00 0.00 0.00 38 1012.7
20260501215738 67 122 2.0 4.0 0.00 0.00 0.00 37 1012.7
20260501215233 67 118 1.0 4.0 0.00 0.00 0.00 38 1012.6
20260501214729 68 168 0.0 3.0 0.00 0.00 0.00 39 1012.6
20260501214225 68 142 1.0 4.0 0.00 0.00 0.00 37 1012.7
20260501213721 70 113 1.0 1.0 0.00 0.00 0.00 35 1012.7
20260501213217 69 211 2.0 3.0 0.00 0.00 0.00 34 1012.6
20260501212708 70 94 0.0 2.0 0.00 0.00 0.00 36 1012.7
20260501212205 70 176 0.0 1.0 0.00 0.00 0.00 33 1012.8
20260501211701 69 149 1.0 4.0 0.00 0.00 0.00 34 1012.8
20260501211158 70 196 2.0 3.0 0.00 0.00 0.00 32 1013.1
20260501210650 70 141 1.0 3.0 0.00 0.00 0.00 35 1012.9
20260501210146 70 30 2.0 6.0 0.00 0.00 0.00 35 1012.8
20260501205642 69 101 1.0 6.0 0.00 0.00 0.00 36 1012.8
20260501205140 69 189 1.0 4.0 0.00 0.00 0.00 34 1012.8
20260501204636 69 170 1.0 3.0 0.00 0.00 0.00 34 1012.8
20260501204132 70 188 4.0 7.0 0.00 0.00 0.00 34 1012.8
20260501203629 69 131 2.0 3.0 0.00 0.00 0.00 33 1012.9
20260501203127 70 176 2.0 2.0 0.00 0.00 0.00 35 1013.1
20260501202624 70 187 2.0 8.0 0.00 0.00 0.00 35 1013.3
20260501202120 69 68 6.0 8.0 0.00 0.00 0.00 32 1013.2
20260501201618 69 111 2.0 3.0 0.00 0.00 0.00 32 1013.4
20260501201114 69 157 1.0 4.0 0.00 0.00 0.00 33 1013.5
20260501200611 69 145 2.0 4.0 0.00 0.00 0.00 33 1013.8
20260501200109 69 142 1.0 3.0 0.00 0.00 0.00 35 1013.8
20260501195607 71 107 0.0 3.0 0.00 0.00 0.00 36 1013.8
20260501195101 70 116 1.0 2.0 0.00 0.00 0.00 36 1013.9
20260501194557 70 193 1.0 4.0 0.00 0.00 0.00 34 1014.0
20260501194053 69 186 1.0 1.0 0.00 0.00 0.00 34 1013.9
20260501193550 69 123 0.0 2.0 0.00 0.00 0.00 34 1013.9
20260501193049 69 137 1.0 2.0 0.00 0.00 0.00 33 1014.2
20260501192545 68 103 2.0 3.0 0.00 0.00 0.00 35 1014.2
20260501192043 69 95 1.0 3.0 0.00 0.00 0.00 35 1014.4
20260501191540 69 139 3.0 6.0 0.00 0.00 0.00 36 1014.6
20260501191037 68 147 2.0 4.0 0.00 0.00 0.00 37 1014.4
20260501190532 68 127 1.0 4.0 0.00 0.00 0.00 36 1014.6
20260501190029 68 96 2.0 3.0 0.00 0.00 0.00 37 1014.6
20260501185525 68 115 1.0 3.0 0.00 0.00 0.00 40 1014.9
20260501185021 68 105 2.0 2.0 0.00 0.00 0.00 37 1015.0
20260501184517 67 147 3.0 4.0 0.00 0.00 0.00 37 1015.3
20260501184012 67 224 2.0 3.0 0.00 0.00 0.00 38 1015.0
20260501183510 67 193 1.0 3.0 0.00 0.00 0.00 39 1015.4
20260501183006 67 122 2.0 4.0 0.00 0.00 0.00 38 1015.2
20260501182503 69 204 2.0 3.0 0.00 0.00 0.00 39 1015.4
20260501181959 68 140 0.0 3.0 0.00 0.00 0.00 38 1015.5
20260501181457 68 152 3.0 4.0 0.00 0.00 0.00 37 1015.6
20260501180954 67 167 0.0 2.0 0.00 0.00 0.00 40 1015.4
20260501180451 69 166 0.0 3.0 0.00 0.00 0.00 35 1015.6
20260501175947 68 215 0.0 2.0 0.00 0.00 0.00 37 1015.5
20260501175444 68 149 1.0 2.0 0.00 0.00 0.00 35 1015.5
20260501174940 67 198 0.0 1.0 0.00 0.00 0.00 35 1015.8
20260501174438 68 189 2.0 3.0 0.00 0.00 0.00 37 1015.8
20260501173936 67 166 0.0 1.0 0.00 0.00 0.00 39 1015.6
20260501173433 67 109 1.0 2.0 0.00 0.00 0.00 37 1015.8
20260501172928 67 162 4.0 6.0 0.00 0.00 0.00 36 1016.0
20260501172424 67 127 0.0 4.0 0.00 0.00 0.00 40 1016.0
20260501171919 66 150 2.0 3.0 0.00 0.00 0.00 38 1016.0
20260501171416 66 140 0.0 6.0 0.00 0.00 0.00 42 1016.2
20260501170913 66 163 0.0 2.0 0.00 0.00 0.00 42 1016.0
20260501170410 65 359 2.0 4.0 0.00 0.00 0.00 40 1016.1